• In Hungary
  • List of Countries
  • For 7 days
  • Water Temperature
  • Satellite Maps
  • Weather Map
  • News
  • Weather Widgets
  • user-avatar
    Login

    Hourly Weather Prutz

    Today, 16 August, Wednesday

    Time Temperature Precipitation Wind Pressure Humidity
    00:00 +13°C° 0.4 mm 1 mps 639 mmHg 87%
    01:00 +13°C° 0 mm 1 mps 639 mmHg 88%
    02:00 +13°C° 0.5 mm 1 mps 638 mmHg 90%
    03:00 +13°C° 0.5 mm 1 mps 638 mmHg 92%
    04:00 +12°C° 0.5 mm 1 mps 638 mmHg 94%
    05:00 +13°C° 0.4 mm 1 mps 639 mmHg 93%
    06:00 +13°C° 0.4 mm 1 mps 639 mmHg 93%
    07:00 +14°C° 0 mm 1 mps 639 mmHg 92%
    08:00 +15°C° 0.6 mm 1 mps 640 mmHg 86%
    09:00 +18°C° 0.6 mm 1 mps 640 mmHg 81%
    10:00 +19°C° 0.6 mm 1 mps 640 mmHg 75%
    11:00 +20°C° 0.5 mm 1 mps 640 mmHg 70%
    12:00 +21°C° 0.5 mm 1 mps 640 mmHg 65%
    13:00 +21°C° 0.5 mm 2 mps 641 mmHg 60%
    14:00 +21°C° 0.6 mm 2 mps 640 mmHg 60%
    15:00 +20°C° 0.6 mm 2 mps 640 mmHg 60%
    16:00 +20°C° 0.6 mm 2 mps 640 mmHg 60%
    17:00 +19°C° 0.4 mm 2 mps 640 mmHg 68%
    18:00 +18°C° 0.4 mm 1 mps 639 mmHg 76%
    19:00 +16°C° 0.4 mm 1 mps 639 mmHg 84%
    20:00 +15°C° 0.2 mm 1 mps 639 mmHg 86%
    21:00 +14°C° 0.2 mm 1 mps 639 mmHg 88%
    22:00 +13°C° 0.2 mm 1 mps 639 mmHg 90%
    23:00 +13°C° 0.1 mm 1 mps 638 mmHg 90%

    Tomorrow, 17 August, Thursday

    Time Temperature Precipitation Wind Pressure Humidity
    00:00 +13°C° 0.1 mm 1 mps 638 mmHg 90%
    01:00 +12°C° 0.1 mm 1 mps 638 mmHg 89%
    02:00 +12°C° 0 mm 1 mps 638 mmHg 89%
    03:00 +12°C° 0 mm 1 mps 638 mmHg 89%
    04:00 +11°C° 0 mm 1 mps 637 mmHg 89%
    05:00 +12°C° 0 mm 1 mps 638 mmHg 85%
    06:00 +14°C° 0 mm 1 mps 638 mmHg 81%
    07:00 +15°C° 0 mm 1 mps 639 mmHg 77%
    08:00 +18°C° 0 mm 1 mps 640 mmHg 69%
    09:00 +20°C° 0 mm 1 mps 640 mmHg 60%
    10:00 +22°C° 0 mm 1 mps 641 mmHg 52%
    11:00 +23°C° 0.1 mm 1 mps 641 mmHg 51%
    12:00 +23°C° 0.1 mm 1 mps 641 mmHg 49%
    13:00 +24°C° 0.1 mm 1 mps 640 mmHg 48%
    14:00 +24°C° 0.1 mm 1 mps 640 mmHg 51%
    15:00 +23°C° 0.1 mm 1 mps 640 mmHg 54%
    16:00 +23°C° 0.1 mm 1 mps 640 mmHg 58%
    17:00 +21°C° 0.2 mm 1 mps 639 mmHg 66%
    18:00 +20°C° 0.2 mm 1 mps 639 mmHg 75%
    19:00 +18°C° 0.2 mm 1 mps 638 mmHg 83%
    20:00 +16°C° 0 mm 1 mps 638 mmHg 86%
    21:00 +15°C° 0 mm 1 mps 638 mmHg 88%
    22:00 +14°C° 0 mm 1 mps 638 mmHg 90%
    23:00 +14°C° 0 mm 1 mps 638 mmHg 90%

    Day after tomorrow, 18 August, Friday

    Time Temperature Precipitation Wind Pressure Humidity
    00:00 +14°C° 0 mm 1 mps 638 mmHg 90%
    01:00 +13°C° 0 mm 1 mps 638 mmHg 90%
    02:00 +13°C° 0 mm 1 mps 637 mmHg 90%
    03:00 +13°C° 0 mm 1 mps 637 mmHg 90%
    04:00 +13°C° 0 mm 1 mps 637 mmHg 90%
    05:00 +14°C° 0 mm 1 mps 637 mmHg 88%
    06:00 +15°C° 0 mm 1 mps 638 mmHg 85%
    07:00 +16°C° 0 mm 1 mps 638 mmHg 83%
    08:00 +19°C° 0 mm 1 mps 638 mmHg 74%
    09:00 +21°C° 0 mm 1 mps 639 mmHg 66%
    10:00 +23°C° 0 mm 1 mps 639 mmHg 57%
    11:00 +24°C° 0.2 mm 2 mps 639 mmHg 57%
    12:00 +24°C° 0.2 mm 2 mps 639 mmHg 57%
    13:00 +24°C° 0.2 mm 2 mps 639 mmHg 57%
    14:00 +24°C° 0.9 mm 2 mps 638 mmHg 61%
    15:00 +23°C° 0.9 mm 2 mps 638 mmHg 65%
    16:00 +23°C° 0.9 mm 2 mps 638 mmHg 69%
    17:00 +20°C° 1.5 mm 2 mps 637 mmHg 75%
    18:00 +20°C° 1.5 mm 1 mps 637 mmHg 81%
    19:00 +18°C° 1.5 mm 1 mps 636 mmHg 87%
    20:00 +16°C° 1 mm 2 mps 636 mmHg 90%
    21:00 +16°C° 1 mm 2 mps 636 mmHg 92%
    22:00 +15°C° 1 mm 2 mps 636 mmHg 95%
    23:00 +14°C° 2.8 mm 2 mps 636 mmHg 96%

    19 August, Saturday

    Time Temperature Precipitation Wind Pressure Humidity
    00:00 +14°C° 2.8 mm 2 mps 636 mmHg 96%
    01:00 +13°C° 2.8 mm 2 mps 636 mmHg 97%
    02:00 +12°C° 5.4 mm 2 mps 636 mmHg 97%
    03:00 +12°C° 5.4 mm 2 mps 636 mmHg 98%
    04:00 +10°C° 5.4 mm 2 mps 635 mmHg 98%
    05:00 +10°C° 3.4 mm 2 mps 636 mmHg 97%
    06:00 +9°C° 3.4 mm 2 mps 636 mmHg 96%
    07:00 +10°C° 3.4 mm 1 mps 636 mmHg 95%
    08:00 +11°C° 0.2 mm 1 mps 636 mmHg 92%
    09:00 +12°C° 0.2 mm 2 mps 636 mmHg 88%
    10:00 +13°C° 0.2 mm 2 mps 637 mmHg 84%
    11:00 +13°C° 0.3 mm 2 mps 637 mmHg 81%
    12:00 +14°C° 0.3 mm 2 mps 637 mmHg 78%
    13:00 +15°C° 0.3 mm 2 mps 637 mmHg 74%
    14:00 +14°C° 1.3 mm 2 mps 637 mmHg 77%
    15:00 +14°C° 1.3 mm 2 mps 637 mmHg 80%
    16:00 +12°C° 1.3 mm 3 mps 636 mmHg 83%
    17:00 +12°C° 0.7 mm 2 mps 636 mmHg 86%
    18:00 +10°C° 0.7 mm 2 mps 636 mmHg 89%
    19:00 +9°C° 0.7 mm 2 mps 636 mmHg 92%
    20:00 +9°C° 0.1 mm 2 mps 637 mmHg 93%
    21:00 +8°C° 0.1 mm 2 mps 637 mmHg 93%
    22:00 +7°C° 0.1 mm 2 mps 637 mmHg 94%
    23:00 +7°C° 0.1 mm 2 mps 637 mmHg 94%

    20 August, Sunday

    Time Temperature Precipitation Wind Pressure Humidity
    00:00 +7°C° 0.1 mm 2 mps 637 mmHg 94%
    01:00 +6°C° 0.1 mm 2 mps 637 mmHg 95%
    02:00 +6°C° 0 mm 2 mps 637 mmHg 95%
    03:00 +6°C° 0 mm 2 mps 637 mmHg 95%
    04:00 +6°C° 0 mm 2 mps 637 mmHg 95%
    05:00 +6°C° 0 mm 2 mps 638 mmHg 93%
    06:00 +7°C° 0 mm 2 mps 638 mmHg 91%
    07:00 +7°C° 0 mm 2 mps 638 mmHg 89%
    08:00 +9°C° 0 mm 2 mps 639 mmHg 78%
    09:00 +10°C° 0 mm 2 mps 640 mmHg 67%
    10:00 +13°C° 0 mm 2 mps 640 mmHg 56%
    11:00 +14°C° 0 mm 2 mps 640 mmHg 52%
    12:00 +15°C° 0 mm 2 mps 640 mmHg 47%
    13:00 +16°C° 0 mm 2 mps 640 mmHg 43%
    14:00 +16°C° 0 mm 2 mps 640 mmHg 44%
    15:00 +16°C° 0 mm 3 mps 640 mmHg 45%
    16:00 +16°C° 0 mm 3 mps 640 mmHg 46%
    17:00 +14°C° 0 mm 2 mps 640 mmHg 57%
    18:00 +12°C° 0 mm 2 mps 639 mmHg 67%
    19:00 +10°C° 0 mm 2 mps 639 mmHg 77%
    20:00 +9°C° 0 mm 1 mps 639 mmHg 82%
    21:00 +8°C° 0 mm 1 mps 638 mmHg 86%
    22:00 +7°C° 0 mm 1 mps 638 mmHg 91%
    23:00 +7°C° 0 mm 1 mps 638 mmHg 89%

    21 August, Monday

    Time Temperature Precipitation Wind Pressure Humidity
    00:00 +6°C° 0 mm 1 mps 638 mmHg 88%
    01:00 +6°C° 0 mm 1 mps 638 mmHg 86%
    02:00 +6°C° 0 mm 1 mps 638 mmHg 81%
    03:00 +6°C° 0 mm 1 mps 637 mmHg 75%
    04:00 +6°C° 0 mm 1 mps 637 mmHg 70%
    05:00 +8°C° 0 mm 1 mps 638 mmHg 63%
    06:00 +9°C° 0 mm 1 mps 638 mmHg 56%
    07:00 +11°C° 0 mm 1 mps 639 mmHg 49%
    08:00 +13°C° 0 mm 1 mps 640 mmHg 42%
    09:00 +16°C° 0 mm 1 mps 640 mmHg 34%
    10:00 +19°C° 0 mm 1 mps 641 mmHg 26%
    11:00 +19°C° 0 mm 2 mps 641 mmHg 27%
    12:00 +20°C° 0 mm 2 mps 641 mmHg 28%
    13:00 +21°C° 0 mm 2 mps 641 mmHg 29%
    14:00 +21°C° 0 mm 2 mps 641 mmHg 32%
    15:00 +21°C° 0 mm 2 mps 640 mmHg 34%
    16:00 +20°C° 0 mm 2 mps 640 mmHg 37%
    17:00 +18°C° 0 mm 2 mps 639 mmHg 48%
    18:00 +16°C° 0 mm 1 mps 638 mmHg 59%
    19:00 +13°C° 0 mm 1 mps 638 mmHg 70%
    20:00 +12°C° 0 mm 1 mps 637 mmHg 72%
    21:00 +11°C° 0 mm 1 mps 637 mmHg 74%
    22:00 +10°C° 0 mm 1 mps 637 mmHg 76%
    23:00 +10°C° 0 mm 1 mps 637 mmHg 74%
    Show more